This is the latest recevied weather packets stored in our database for station/object K4QXN. If no packets are shown the sender has not sent any weather packets the latest 1 day(s).
| Time | Temp. | Humidity | Pressure | Rain* | Wind** | Luminosity | Snow |
|---|---|---|---|---|---|---|---|
| 1778078283 | 21.67° C | 70% | 1011.8 hPa | 0 mm | - | - | - |
| 1778077076 | 21.67° C | 70% | 1011.8 hPa | 0 mm | - | - | - |
| 1778076774 | 21.11° C | 71% | 1011.8 hPa | 0 mm | - | - | - |
| 1778074964 | 21.67° C | 71% | 1012.1 hPa | 0 mm | - | - | - |
| 1778074361 | 20.56° C | 72% | 1012.1 hPa | 0 mm | - | - | - |
| 1778074059 | 20° C | 74% | 1011.8 hPa | 0 mm | - | - | - |
| 1778073757 | 20.56° C | 73% | 1012.1 hPa | 0 mm | - | - | - |
| 1778073154 | 18.89° C | 78% | 1011.8 hPa | 0 mm | - | - | - |
| 1778072852 | 18.33° C | 80% | 1011.8 hPa | 0 mm | - | - | - |
| 1778071947 | 17.78° C | 81% | 1011.8 hPa | 0 mm | - | - | - |
| 1778071645 | 17.22° C | 81% | 1012.1 hPa | 0 mm | - | - | - |
| 1778071343 | 17.22° C | 81% | 1012.1 hPa | 0 mm | - | - | - |
| 1778070438 | 17.78° C | 81% | 1012.1 hPa | 0 mm | - | - | - |
| 1778070136 | 17.22° C | 81% | 1012.5 hPa | 0 mm | - | - | - |
| 1778069533 | 17.22° C | 81% | 1012.5 hPa | 0 mm | - | - | - |
| 1778069231 | 17.22° C | 81% | 1012.8 hPa | 0 mm | - | - | - |
| 1778068929 | 17.22° C | 81% | 1012.8 hPa | 0 mm | - | - | - |
| 1778068024 | 17.22° C | 81% | 1012.5 hPa | 0 mm | - | - | - |
| 1778066515 | 16.67° C | 81% | 1011.8 hPa | 0 mm | - | - | - |
| 1778066213 | 16.67° C | 82% | 1012.1 hPa | 0 mm | - | - | - |
| 1778065912 | 16.67° C | 82% | 1012.1 hPa | 0 mm | - | - | - |
| 1778065309 | 16.11° C | 82% | 1011.8 hPa | 0 mm | - | - | - |
| 1778064706 | 16.11° C | 82% | 1011.5 hPa | 0 mm | - | - | - |
| 1778064404 | 16.11° C | 82% | 1011.5 hPa | 0 mm | - | - | - |
| 1778063800 | 16.11° C | 82% | 1011.5 hPa | 0 mm | - | - | - |
* Rain latest hour (hover to see other rain measurements)
** Current wind speed in m/s (hover to see current wind gust speed)